Weather History for KFRM - June, 2014

Change the Weather History Date:

Friday, June 27, 2014

  Actual Average Record
Temperature  
Mean Temperature 72 °F -  
Max Temperature 78 °F 83 °F 97 °F (1980)
Min Temperature 66 °F 60 °F 45 °F (1968)
Cooling Degree Days 7    
Growing Degree Days 22 (Base 50)    
Moisture  
Dew Point 65 °F    
Average Humidity 75    
Maximum Humidity 88    
Minimum Humidity 57    
Precipitation  
Precipitation 0.01 in - - ()
Sea Level Pressure  
Sea Level Pressure 29.80 in    
Wind  
Wind Speed 14 mph (SSE)    
Max Wind Speed 26 mph    
Max Gust Speed 33 mph    
Visibility 10 miles    
Events      
Averages and records for this station are not official NWS values.
T = Trace of Precipitation, MM = Missing Value Source: NWS Daily Summary

Daily Weather History Graph

Daily Weather History Graph

Search for Another Location

Airport or City:

Trip Planner

Search our weather history database for the weather conditions in past years. The results will help you decide how hot, cold, wet, or windy it might be!

Date:

Astronomy

Jun. 27, 2014 Rise Set
Actual Time 5:38 AM CDT 9:03 PM CDT
Civil Twilight 5:02 AM CDT 9:39 PM CDT
Nautical Twilight 4:15 AM CDT 10:26 PM CDT
Astronomical Twilight 3:15 AM CDT 11:25 PM CDT
Moon 6:12 AM CDT (6/27) 9:05 PM CDT (6/27)
Length of Visible Light 16h 37m
Length of Day
15h 25m
New Moon, 0% of the Moon is Illuminated
Jun 27
New Moon
Jul 5
First Quarter
Jul 12
Full
Jul 18
Last Quarter
Jul 26
New

Hourly Weather History & Observations

Time (CDT) Temp. Dew Point Humidity Pressure Visibility Wind Dir Wind Speed Gust Speed Precip Events Conditions
12:15 AM 71.6 °F 64.4 °F 78% 29.86 in 10.0 mi SSE 13.8 mph - N/A   Clear
12:35 AM 71.6 °F 64.4 °F 78% 29.86 in 10.0 mi SSE 9.2 mph - N/A   Mostly Cloudy
12:55 AM 71.6 °F 64.4 °F 78% 29.87 in 10.0 mi SSE 9.2 mph - N/A   Overcast
1:15 AM 69.8 °F 64.4 °F 83% 29.88 in 10.0 mi South 10.4 mph - N/A   Mostly Cloudy
1:35 AM 69.8 °F 62.6 °F 78% 29.87 in 10.0 mi South 9.2 mph - N/A   Mostly Cloudy
1:55 AM 69.8 °F 62.6 °F 78% 29.87 in 10.0 mi South 11.5 mph - N/A   Overcast
2:15 AM 68.0 °F 62.6 °F 83% 29.86 in 10.0 mi South 9.2 mph - N/A   Scattered Clouds
2:35 AM 66.2 °F 62.6 °F 88% 29.86 in 10.0 mi South 8.1 mph - 0.01 in   Mostly Cloudy
2:55 AM 66.2 °F 62.6 °F 88% 29.85 in 10.0 mi SSE 11.5 mph - 0.01 in   Overcast
3:35 AM 66.2 °F 60.8 °F 83% 29.84 in 10.0 mi SSE 12.7 mph - N/A   Mostly Cloudy
3:55 AM 66.2 °F 60.8 °F 83% 29.84 in 10.0 mi South 9.2 mph - N/A   Overcast
4:15 AM 66.2 °F 62.6 °F 88% 29.84 in 10.0 mi SSE 8.1 mph - N/A   Overcast
4:35 AM 66.2 °F 62.6 °F 88% 29.84 in 10.0 mi SSE 10.4 mph - N/A   Overcast
4:55 AM 66.2 °F 62.6 °F 88% 29.84 in 10.0 mi SSE 11.5 mph - N/A   Overcast
5:15 AM 66.2 °F 62.6 °F 88% 29.85 in 10.0 mi SSE 12.7 mph - N/A   Overcast
5:35 AM 66.2 °F 62.6 °F 88% 29.84 in 10.0 mi SSE 11.5 mph - N/A   Mostly Cloudy
5:55 AM 66.2 °F 62.6 °F 88% 29.84 in 10.0 mi SSE 9.2 mph - N/A   Mostly Cloudy
6:35 AM 68.0 °F 62.6 °F 83% 29.83 in 10.0 mi SSE 11.5 mph - N/A   Mostly Cloudy
6:55 AM 68.0 °F 62.6 °F 83% 29.84 in 10.0 mi SSE 12.7 mph - N/A   Scattered Clouds
7:35 AM 69.8 °F 62.6 °F 78% 29.83 in 10.0 mi SSE 11.5 mph - N/A   Scattered Clouds
7:55 AM 69.8 °F 62.6 °F 78% 29.82 in 10.0 mi SSE 15.0 mph - N/A   Partly Cloudy
8:15 AM 69.8 °F 62.6 °F 78% 29.82 in 10.0 mi SSE 13.8 mph 21.9 mph N/A   Clear
8:35 AM 69.8 °F 62.6 °F 78% 29.83 in 10.0 mi SSE 16.1 mph 19.6 mph N/A   Clear
8:55 AM 71.6 °F 64.4 °F 78% 29.83 in 10.0 mi SSE 17.3 mph 20.7 mph N/A   Clear
9:15 AM 71.6 °F 64.4 °F 78% 29.82 in 10.0 mi SSE 17.3 mph 20.7 mph N/A   Scattered Clouds
9:35 AM 73.4 °F 64.4 °F 73% 29.82 in 10.0 mi SE 17.3 mph - N/A   Scattered Clouds
9:55 AM 73.4 °F 64.4 °F 73% 29.82 in 10.0 mi SSE 16.1 mph - N/A   Mostly Cloudy
10:15 AM 73.4 °F 64.4 °F 73% 29.81 in 10.0 mi SSE 17.3 mph - N/A   Mostly Cloudy
10:35 AM 75.2 °F 64.4 °F 69% 29.80 in 10.0 mi SE 16.1 mph - N/A   Scattered Clouds
10:55 AM 75.2 °F 64.4 °F 69% 29.79 in 10.0 mi SSE 18.4 mph - N/A   Mostly Cloudy
11:15 AM 73.4 °F 64.4 °F 73% 29.80 in 10.0 mi SE 17.3 mph - N/A   Overcast
11:35 AM 75.2 °F 64.4 °F 69% 29.79 in 10.0 mi SE 19.6 mph 25.3 mph N/A   Overcast
11:55 AM 73.4 °F 64.4 °F 73% 29.78 in 10.0 mi SE 17.3 mph - N/A   Mostly Cloudy
12:15 PM 73.4 °F 64.4 °F 73% 29.76 in 10.0 mi SE 19.6 mph 26.5 mph N/A   Mostly Cloudy
12:35 PM 73.4 °F 64.4 °F 73% 29.76 in 10.0 mi SE 23.0 mph 27.6 mph N/A   Overcast
12:55 PM 73.4 °F 64.4 °F 73% 29.79 in 10.0 mi SSE 26.5 mph 33.4 mph N/A   Overcast
1:15 PM 71.6 °F 64.4 °F 78% 29.81 in 10.0 mi South 23.0 mph 29.9 mph N/A   Overcast
1:35 PM 71.6 °F 64.4 °F 78% 29.79 in 10.0 mi SSE 17.3 mph 27.6 mph N/A   Overcast
1:55 PM 73.4 °F 64.4 °F 73% 29.79 in 10.0 mi SSE 19.6 mph 23.0 mph N/A   Mostly Cloudy
2:15 PM 75.2 °F 64.4 °F 69% 29.79 in 10.0 mi SSE 19.6 mph - N/A   Overcast
2:35 PM 75.2 °F 64.4 °F 69% 29.78 in 10.0 mi South 19.6 mph - N/A   Overcast
2:55 PM 78.8 °F 64.4 °F 61% 29.78 in 10.0 mi South 20.7 mph - N/A   Mostly Cloudy
3:35 PM 78.8 °F 64.4 °F 61% 29.77 in 10.0 mi South 17.3 mph - N/A   Mostly Cloudy
3:55 PM 78.8 °F 64.4 °F 61% 29.78 in 10.0 mi South 16.1 mph 24.2 mph N/A   Mostly Cloudy
4:15 PM 78.8 °F 64.4 °F 61% 29.78 in 10.0 mi South 21.9 mph - N/A   Overcast
4:35 PM 78.8 °F 64.4 °F 61% 29.78 in 10.0 mi South 17.3 mph 25.3 mph N/A   Mostly Cloudy
4:55 PM 78.8 °F 64.4 °F 61% 29.78 in 10.0 mi SSE 17.3 mph - N/A   Mostly Cloudy
5:15 PM 78.8 °F 64.4 °F 61% 29.77 in 10.0 mi SSE 16.1 mph - N/A   Mostly Cloudy
5:35 PM 78.8 °F 64.4 °F 61% 29.77 in 10.0 mi South 19.6 mph 25.3 mph N/A   Mostly Cloudy
5:55 PM 78.8 °F 64.4 °F 61% 29.77 in 10.0 mi SSE 18.4 mph 23.0 mph N/A   Mostly Cloudy
6:15 PM 77.0 °F 64.4 °F 65% 29.77 in 10.0 mi SSE 17.3 mph - N/A   Overcast
6:35 PM 78.8 °F 64.4 °F 61% 29.77 in 10.0 mi SSE 18.4 mph - N/A   Overcast
6:55 PM 78.8 °F 62.6 °F 57% 29.77 in 10.0 mi South 16.1 mph - N/A   Mostly Cloudy
7:15 PM 78.8 °F 64.4 °F 61% 29.77 in 10.0 mi South 16.1 mph 20.7 mph N/A   Mostly Cloudy
7:35 PM 78.8 °F 64.4 °F 61% 29.76 in 10.0 mi South 13.8 mph - N/A   Partly Cloudy
7:55 PM 78.8 °F 66.2 °F 65% 29.76 in 10.0 mi South 13.8 mph - N/A   Mostly Cloudy
8:15 PM 77.0 °F 66.2 °F 69% 29.76 in 10.0 mi SSE 13.8 mph - N/A   Mostly Cloudy
8:35 PM 77.0 °F 66.2 °F 69% 29.76 in 10.0 mi SSE 13.8 mph - N/A   Mostly Cloudy
8:55 PM 75.2 °F 68.0 °F 78% 29.75 in 10.0 mi SSE 15.0 mph 18.4 mph N/A   Scattered Clouds
9:15 PM 75.2 °F 68.0 °F 78% 29.75 in 10.0 mi SE 15.0 mph - N/A   Partly Cloudy
9:35 PM 75.2 °F 68.0 °F 78% 29.75 in 10.0 mi SSE 13.8 mph 21.9 mph N/A   Partly Cloudy
9:55 PM 75.2 °F 68.0 °F 78% 29.76 in 10.0 mi SSE 16.1 mph - N/A   Clear
10:15 PM 75.2 °F 68.0 °F 78% 29.76 in 10.0 mi SSE 13.8 mph 19.6 mph N/A   Partly Cloudy
10:35 PM 75.2 °F 68.0 °F 78% 29.76 in 10.0 mi SSE 15.0 mph - N/A   Scattered Clouds
10:55 PM 75.2 °F 69.8 °F 83% 29.77 in 10.0 mi SSE 15.0 mph - N/A   Mostly Cloudy
11:15 PM 75.2 °F 69.8 °F 83% 29.78 in 10.0 mi SSE 16.1 mph - N/A   Overcast
11:35 PM 75.2 °F 69.8 °F 83% 29.78 in 10.0 mi SSE 15.0 mph - N/A   Overcast
11:55 PM 73.4 °F 69.8 °F 88% 29.78 in 10.0 mi SSE 13.8 mph - N/A   Overcast